SCP
0 0 0 0 0 0 0 0 0 0 0 0 0 0 0 0 0 0 0 0 0 0 0 0 0 0 0 0 0 0 0 0
-0 0 0 0 0 0 0 0 0 0 0 0 0 0 0 0 0 0 0 0 0 0 0 0 0 0 0 0 0 0 0 0
-0 0 0 0 0 0 0 0 0 0 0 0 0 0 0 0 0 0 0 0 0 0 0 0 0 0 0 0 0 0 0 0
-0 0 0 0 0 0 0 0 0 0 0 0 0 0 0 0 0 0 0 0 0 0 0 0 0 0 0 0 0 0 0 0
0 0 0 0 0 0 0 0 0 0 0 0 0 0 0 0 0 0 0 0 0 0 0 0 0 0 0 0 0 0 0 0
0 0 0 0 0 0 0 0 0 0 0 0 0 0 0 0 0 0 0 0 0 0 0 0 0 0 0 0 0 0 0 0
0 0 0 0 0 0 0 0 0 0 0 0 0 0 0 0 0 0 0 0 0 0 0 0 0 0 0 0 0 0 0 0
0 0 0 0 0 0 0 0 0 0 0 0 0 0 0 0 0 0 0 0 0 0 0 0 0 0 0 0 0 0 0 0
0 0 0 0 0 0 0 0 0 0 0 0 0 0 0 0 0 0 0 0 0 0 0 0 0 0 0 0 0 0 0 0
0 0 0 0 0 0 0 0 0 0 0 0 0 0 0 0 0 0 0 0 0 0 0 0 0 0 0 0 0 0 0 0
0 0 0 0 0 0 0 0 0 0 0 0 0 0 0 0 0 0 0 0 0 0 0 0 0 0 0 0 0 0 0 0
0 0 0 0 0 0 0 0 0 0 0 0 0 0 0 0 0 0 0 0 0 0 0 0 0 0 0 0 0 0 0 0
0 0 0 0 0 0 0 0 0 0 0 0 0 0 0 0 0 0 0 0 0 0 0 0 0 0 0 0 0 0 0 0
0 0 0 0 0 0 0 0 0 0 0 0 0 0 0 0 0 0 0 0 0 0 0 0 0 0 0 0 0 0 0 0
0 0 0 0 0 0 0 0 0 0 0 0 0 0 0 0 0 0 0 0 0 0 0 0 0 0 0 0 0 0 0 0
0 0 0 0 0 0 0 0 0 0 0 0 0 0 0 0 0 0 0 0 0 0 0 0 0 0 0 0 0 0 0 0
0 0 0 0 0 0 0 0 0 0 0 0 0 0 0 0 0 0 0 0 0 0 0 0 0 0 0 0 0 0 0 0
0 0 0 0 0 0 0 0 0 0 0 0 0 0 0 0 0 0 0 0 0 0 0 0 0 0 0 0 0 0 0 0
0 0 0 0 0 0 0 0 0 0 0 0 0 0 0 0 0 0 0 0 0 0 0 0 0 0 0 0 0 0 0 0
0 0 0 0 0 0 0 0 0 0 0 0 0 0 0 0 0 0 0 0 0 0 0 0 0 0 0 0 0 0 0 0
Wind_Speed_500mb
24 27 32 39 49 66 84 86 82 80 79 76 76 78 76 71 72 73 77 79 75 69 61 54 48 40 34 29 23 17 13 8
17 22 28 35 44 60 79 86 83 79 79 77 79 78 74 72 73 78 81 81 75 69 62 55 48 42 36 29 23 18 13 8
12 19 28 33 42 57 75 84 82 79 82 80 79 79 78 79 79 83 85 81 75 69 62 56 49 43 36 30 24 19 13 10
17 24 28 32 41 53 70 81 81 81 84 84 83 84 84 83 84 86 88 82 76 69 64 58 52 45 38 31 25 20 17 14
29 39 36 38 44 53 67 79 84 85 87 89 88 82 86 86 86 90 88 83 77 71 66 60 53 47 40 34 31 26 22 22
47 49 47 46 50 56 66 77 85 89 91 93 90 87 88 89 91 92 89 84 78 74 69 62 55 48 42 38 34 30 31 32
62 57 57 58 58 61 67 76 84 89 91 91 91 91 89 88 91 93 91 87 82 77 69 64 58 50 42 39 39 36 41 40
81 71 63 61 67 67 70 76 81 87 90 92 92 92 90 90 93 95 93 88 84 78 71 65 57 47 45 51 39 45 50 46
74 70 72 74 73 68 69 73 79 83 88 91 93 92 91 92 93 92 90 87 84 79 72 64 53 55 47 47 49 52 57 54
60 55 56 65 67 66 65 66 74 79 86 91 93 93 91 91 91 90 88 85 80 75 70 65 56 63 52 61 59 57 64 60
40 45 46 48 52 54 58 62 68 76 80 83 87 88 88 89 86 83 77 76 77 73 69 60 63 61 56 68 63 62 67 63
47 39 32 33 39 45 48 53 54 55 61 68 75 79 78 74 73 66 73 74 74 71 55 69 64 62 61 62 65 67 70 68
24 24 23 22 23 28 31 31 34 36 42 51 62 70 70 68 69 68 73 70 67 62 71 65 57 58 56 60 65 68 72 70
12 11 15 16 17 19 22 23 25 30 33 38 47 59 65 70 67 61 60 69 77 82 74 59 56 53 63 63 66 67 70 68
11 15 21 24 24 21 19 20 21 24 30 37 47 55 60 64 66 67 62 60 61 61 62 61 62 62 60 60 60 62 66 68
16 21 25 29 30 29 22 19 19 22 25 27 29 32 36 40 42 47 49 50 53 55 55 56 57 51 50 54 57 57 55 56
24 22 24 28 30 29 26 23 23 26 29 29 30 32 34 36 39 41 41 44 45 47 49 49 50 50 51 52 52 51 50 53
28 31 34 35 34 34 32 29 24 19 22 24 25 27 29 32 34 35 39 41 42 44 45 46 47 49 48 45 49 54 50 43
35 37 35 33 30 28 25 22 21 20 18 17 17 20 22 25 28 31 35 36 39 44 46 46 45 44 44 47 45 37 36 40
37 36 31 25 21 18 16 15 14 14 14 15 18 22 25 29 32 35 38 40 41 43 42 41 44 43 42 35 36 40 43 45
Wind_Direction_500mb
272 267 262 251 239 229 225 227 226 222 217 215 220 221 221 220 222 217 206 202 199 198 198 198 197 197 197 195 190 186 188 190
260 264 260 249 239 229 223 225 225 224 218 216 219 221 220 220 221 216 207 204 203 202 200 200 200 199 198 194 194 194 199 202
258 262 259 252 242 228 223 225 226 225 220 217 219 220 221 220 220 214 208 206 205 204 203 203 203 203 202 202 201 205 214 224
277 269 258 253 243 231 225 226 227 225 223 222 220 220 222 221 219 212 208 208 205 206 206 206 206 205 202 202 210 215 226 237
283 274 260 252 245 235 228 226 227 226 226 226 226 227 223 224 218 212 210 210 208 209 209 209 209 207 208 211 215 223 234 245
279 272 267 258 248 240 234 231 229 228 228 228 228 227 226 223 214 211 212 211 211 211 210 210 210 211 212 217 226 230 243 246
267 262 266 266 257 246 241 235 231 229 230 229 227 226 224 218 213 211 212 212 212 213 214 213 213 212 216 238 227 242 248 250
271 270 266 268 265 252 244 239 235 231 230 228 226 225 222 217 214 214 214 213 214 214 215 216 216 217 233 234 240 248 251 252
272 272 269 267 261 253 244 241 237 232 230 228 226 224 221 218 216 216 217 217 217 217 217 217 216 226 232 235 245 251 253 254
278 274 268 265 262 253 243 239 237 234 230 227 224 222 221 220 217 216 218 219 221 221 220 216 223 238 224 243 245 250 254 255
283 275 264 261 258 246 242 239 236 234 230 227 224 222 220 219 217 218 219 225 225 222 221 227 230 246 229 243 253 254 255 256
277 273 263 255 248 240 237 236 237 236 232 228 224 222 221 219 216 223 231 226 223 221 229 240 239 249 242 246 256 257 258 260
266 259 248 238 229 225 224 223 225 226 227 225 221 218 216 213 228 235 225 224 221 227 243 236 245 250 250 253 253 255 258 263
242 227 203 182 176 184 183 188 196 201 208 212 213 216 218 221 223 221 222 226 233 244 241 237 242 250 252 249 249 253 261 266
166 160 157 141 134 134 143 157 171 181 189 201 206 208 213 215 220 228 233 233 230 232 238 243 248 253 248 248 248 253 257 261
142 145 143 140 142 147 162 170 178 179 184 189 190 193 200 208 215 222 226 229 233 238 243 247 249 250 250 249 252 257 262 264
155 155 153 150 152 153 156 160 167 171 177 182 185 186 192 199 205 209 215 223 229 233 236 239 245 249 253 257 262 266 267 268
158 151 145 143 143 143 147 151 157 171 176 180 185 192 198 203 210 216 220 228 233 237 242 247 252 256 260 264 265 270 276 270
146 140 137 137 140 144 150 156 163 171 178 187 198 207 216 223 228 231 235 238 240 244 248 251 255 259 262 265 271 267 265 265
154 147 145 145 147 151 163 177 185 195 208 217 224 230 230 231 233 234 236 238 241 245 254 257 261 263 264 266 261 264 270 276
Wind_Speed_850mb
24 27 32 39 49 66 84 86 82 80 79 76 76 78 76 71 72 73 77 79 75 69 61 54 48 40 34 29 23 17 13 8
17 22 28 35 44 60 79 86 83 79 79 77 79 78 74 72 73 78 81 81 75 69 62 55 48 42 36 29 23 18 13 8
12 19 28 33 42 57 75 84 82 79 82 80 79 79 78 79 79 83 85 81 75 69 62 56 49 43 36 30 24 19 13 10
17 24 28 32 41 53 70 81 81 81 84 84 83 84 84 83 84 86 88 82 76 69 64 58 52 45 38 31 25 20 17 14
29 39 36 38 44 53 67 79 84 85 87 89 88 82 86 86 86 90 88 83 77 71 66 60 53 47 40 34 31 26 22 22
47 49 47 46 50 56 66 77 85 89 91 93 90 87 88 89 91 92 89 84 78 74 69 62 55 48 42 38 34 30 31 32
62 57 57 58 58 61 67 76 84 89 91 91 91 91 89 88 91 93 91 87 82 77 69 64 58 50 42 39 39 36 41 40
81 71 63 61 67 67 70 76 81 87 90 92 92 92 90 90 93 95 93 88 84 78 71 65 57 47 45 51 39 45 50 46
74 70 72 74 73 68 69 73 79 83 88 91 93 92 91 92 93 92 90 87 84 79 72 64 53 55 47 47 49 52 57 54
60 55 56 65 67 66 65 66 74 79 86 91 93 93 91 91 91 90 88 85 80 75 70 65 56 63 52 61 59 57 64 60
40 45 46 48 52 54 58 62 68 76 80 83 87 88 88 89 86 83 77 76 77 73 69 60 63 61 56 68 63 62 67 63
47 39 32 33 39 45 48 53 54 55 61 68 75 79 78 74 73 66 73 74 74 71 55 69 64 62 61 62 65 67 70 68
24 24 23 22 23 28 31 31 34 36 42 51 62 70 70 68 69 68 73 70 67 62 71 65 57 58 56 60 65 68 72 70
12 11 15 16 17 19 22 23 25 30 33 38 47 59 65 70 67 61 60 69 77 82 74 59 56 53 63 63 66 67 70 68
11 15 21 24 24 21 19 20 21 24 30 37 47 55 60 64 66 67 62 60 61 61 62 61 62 62 60 60 60 62 66 68
16 21 25 29 30 29 22 19 19 22 25 27 29 32 36 40 42 47 49 50 53 55 55 56 57 51 50 54 57 57 55 56
24 22 24 28 30 29 26 23 23 26 29 29 30 32 34 36 39 41 41 44 45 47 49 49 50 50 51 52 52 51 50 53
28 31 34 35 34 34 32 29 24 19 22 24 25 27 29 32 34 35 39 41 42 44 45 46 47 49 48 45 49 54 50 43
35 37 35 33 30 28 25 22 21 20 18 17 17 20 22 25 28 31 35 36 39 44 46 46 45 44 44 47 45 37 36 40
37 36 31 25 21 18 16 15 14 14 14 15 18 22 25 29 32 35 38 40 41 43 42 41 44 43 42 35 36 40 43 45
Wind_Direction_850mb
272 267 262 251 239 229 225 227 226 222 217 215 220 221 221 220 222 217 206 202 199 198 198 198 197 197 197 195 190 186 188 190
260 264 260 249 239 229 223 225 225 224 218 216 219 221 220 220 221 216 207 204 203 202 200 200 200 199 198 194 194 194 199 202
258 262 259 252 242 228 223 225 226 225 220 217 219 220 221 220 220 214 208 206 205 204 203 203 203 203 202 202 201 205 214 224
277 269 258 253 243 231 225 226 227 225 223 222 220 220 222 221 219 212 208 208 205 206 206 206 206 205 202 202 210 215 226 237
283 274 260 252 245 235 228 226 227 226 226 226 226 227 223 224 218 212 210 210 208 209 209 209 209 207 208 211 215 223 234 245
279 272 267 258 248 240 234 231 229 228 228 228 228 227 226 223 214 211 212 211 211 211 210 210 210 211 212 217 226 230 243 246
267 262 266 266 257 246 241 235 231 229 230 229 227 226 224 218 213 211 212 212 212 213 214 213 213 212 216 238 227 242 248 250
271 270 266 268 265 252 244 239 235 231 230 228 226 225 222 217 214 214 214 213 214 214 215 216 216 217 233 234 240 248 251 252
272 272 269 267 261 253 244 241 237 232 230 228 226 224 221 218 216 216 217 217 217 217 217 217 216 226 232 235 245 251 253 254
278 274 268 265 262 253 243 239 237 234 230 227 224 222 221 220 217 216 218 219 221 221 220 216 223 238 224 243 245 250 254 255
283 275 264 261 258 246 242 239 236 234 230 227 224 222 220 219 217 218 219 225 225 222 221 227 230 246 229 243 253 254 255 256
277 273 263 255 248 240 237 236 237 236 232 228 224 222 221 219 216 223 231 226 223 221 229 240 239 249 242 246 256 257 258 260
266 259 248 238 229 225 224 223 225 226 227 225 221 218 216 213 228 235 225 224 221 227 243 236 245 250 250 253 253 255 258 263
242 227 203 182 176 184 183 188 196 201 208 212 213 216 218 221 223 221 222 226 233 244 241 237 242 250 252 249 249 253 261 266
166 160 157 141 134 134 143 157 171 181 189 201 206 208 213 215 220 228 233 233 230 232 238 243 248 253 248 248 248 253 257 261
142 145 143 140 142 147 162 170 178 179 184 189 190 193 200 208 215 222 226 229 233 238 243 247 249 250 250 249 252 257 262 264
155 155 153 150 152 153 156 160 167 171 177 182 185 186 192 199 205 209 215 223 229 233 236 239 245 249 253 257 262 266 267 268
158 151 145 143 143 143 147 151 157 171 176 180 185 192 198 203 210 216 220 228 233 237 242 247 252 256 260 264 265 270 276 270
146 140 137 137 140 144 150 156 163 171 178 187 198 207 216 223 228 231 235 238 240 244 248 251 255 259 262 265 271 267 265 265
154 147 145 145 147 151 163 177 185 195 208 217 224 230 230 231 233 234 236 238 241 245 254 257 261 263 264 266 261 264 270 276